[[{"header":{"parameterUnit":"m.s-1","parameterCategory":1,"la1":30.2991,"la2":30.254,"lo1":-89.0895,"lo2":-89.0444,"dy":0.0017,"dx":0.0017,"nx":28,"ny":28,"refTime":"2024-10-22T03:00:00:Z","depth":0,"parameterNumber":2,"parameterNumberName":"U-component_of_WINDS"},"data":[0,0,0,0,0,0,0,0,0,0,0,0,0,0,0,0,0,0,0,0,0,0,0,0,0,0,0,0,0,0,0,0,0,0,0,0,0,0,0,0,0,0,0,0,0,0,0,0,0,0,0,0,0,0,0,0,0,0,-1.6127,-1.6126,0,-1.6036,-1.6035,-1.6034,-1.5956,-1.5955,-1.5955,-1.5954,-1.586,-1.5858,-1.5856,0,0,0,0,0,0,0,0,0,0,0,0,0,-1.6236,-1.6235,-1.6127,-1.6126,-1.6125,-1.6036,-1.6035,-1.6033,-1.5956,-1.5955,-1.5954,-1.5953,-1.586,-1.5858,-1.5856,0,0,0,0,0,0,0,0,0,0,0,0,0,-1.6171,-1.6234,-1.6127,-1.6076,-1.607,-1.6036,-1.6035,-1.6033,-1.5957,-1.5955,-1.5954,-1.5953,-1.5861,-1.5859,-1.5856,-1.5866,0,0,-1.5848,-1.5847,0,0,0,0,0,0,0,0,-1.6175,-1.6167,-1.6084,-1.6079,-1.6073,-1.6006,-1.6039,-1.5977,-1.5957,-1.6,-1.5954,-1.5952,-1.5909,-1.5903,-1.5888,-1.5861,-1.5857,-1.5848,-1.5846,-1.5845,-1.5845,0,0,0,0,0,0,0,-1.618,-1.6171,-1.6091,-1.6083,-1.6076,-1.6058,-1.6047,-1.6027,-1.5963,-1.5996,-1.599,-1.598,-1.5906,-1.5891,-1.5886,-1.5856,-1.5848,-1.5846,-1.5844,-1.5843,-1.5836,-1.5837,0,0,0,0,0,0,-1.6192,-1.6175,-1.6094,-1.6088,-1.6122,-1.6057,-1.6045,-1.6029,-1.5963,-1.5952,-1.5982,-1.5977,-1.5896,-1.5889,-1.5882,-1.5891,-1.5845,-1.5843,-1.5841,-1.5834,-1.5836,-1.5838,0,0,0,0,0,0,-1.6195,-1.6186,-1.6097,-1.613,-1.6117,-1.6056,-1.6039,-1.6028,-1.6013,-1.5952,-1.594,-1.5978,-1.5895,-1.5886,-1.5871,-1.5887,-1.5842,-1.5839,-1.5833,-1.5835,-1.5837,-1.5908,0,0,0,0,0,0,-1.6198,-1.6187,-1.6189,-1.6131,-1.6116,-1.6087,-1.604,-1.6027,-1.6008,-1.6002,-1.5945,-1.5935,-1.5893,-1.5875,-1.5869,-1.5882,-1.5837,-1.5831,-1.5834,-1.5836,-1.5904,-1.5912,-1.592,0,0,0,0,0,-1.6202,-1.6212,-1.619,-1.618,-1.6117,-1.6088,-1.608,-1.6032,-1.601,-1.6012,-1.5974,-1.5937,-1.5887,-1.5875,-1.5866,-1.5879,-1.583,-1.5833,-1.5836,-1.5901,-1.5911,-1.5919,0,0,0,0,0,0,-1.6272,-1.6203,-1.6178,-1.6168,-1.6135,-1.6075,-1.6076,-1.6044,-1.6015,-1.601,-1.5952,-1.594,-1.5932,-1.5904,-1.5892,-1.5887,-1.5853,-1.5855,-1.5906,-1.5915,-1.5922,-1.5929,-1.5835,0,0,0,0,0,-1.6287,-1.6269,-1.6209,-1.6207,-1.6192,-1.6138,-1.6123,-1.6089,-1.6052,-1.6038,-1.5998,-1.5964,-1.594,-1.5926,-1.5901,-1.59,-1.5888,-1.5906,-1.5913,-1.592,-1.5922,-1.5923,-1.593,-1.5848,-1.5847,-1.5847,0,0,-1.6316,-1.6276,-1.6268,-1.622,-1.619,-1.6174,-1.6126,-1.6109,-1.6097,-1.6035,-1.6019,-1.599,-1.5948,-1.5941,-1.5936,-1.5918,-1.5943,-1.5924,-1.593,-1.5928,-1.5927,-1.5935,-1.5942,-1.585,-1.5849,-1.5849,0,0,-1.6361,-1.6329,-1.6324,-1.6297,-1.6253,-1.6217,-1.6217,-1.6163,-1.6141,-1.6125,-1.6079,-1.6064,-1.6024,-1.5997,-1.5978,-1.6019,-1.5984,-1.6013,-1.6052,-1.6054,-1.606,-1.6066,-1.6082,-1.6088,-1.6015,-1.6015,-1.6015,0,-1.6403,-1.6376,-1.6326,-1.6314,-1.6296,-1.624,-1.6237,-1.6212,-1.6162,-1.6151,-1.6132,-1.6083,-1.6051,-1.6039,-1.6049,-1.6035,-1.6034,-1.6018,-1.6063,-1.6068,-1.6073,-1.6088,-1.6094,-1.6019,-1.6018,-1.6018,-1.6018,0,-1.6431,-1.6413,-1.6415,-1.6371,-1.6352,-1.6344,-1.6295,-1.6283,-1.6252,-1.622,-1.6206,-1.6166,-1.6133,-1.6128,-1.6097,-1.6113,-1.6103,-1.6074,-1.6039,-1.6086,-1.6099,-1.6104,-1.6024,-1.6023,-1.6022,-1.6021,0,0,-1.6514,-1.6445,-1.6447,-1.6427,-1.6377,-1.6363,-1.6354,-1.6324,-1.6315,-1.6284,-1.6276,-1.6246,-1.6221,-1.62,-1.6166,-1.6167,-1.6205,-1.6138,-1.6137,-1.6153,-1.6223,-1.6245,-1.6252,-1.6182,-1.6183,-1.6184,-1.6227,0,-1.6551,-1.6532,-1.6489,-1.6484,-1.6469,-1.6418,-1.6411,-1.638,-1.6351,-1.6334,-1.6301,-1.6282,-1.6249,-1.6236,-1.6235,-1.6201,-1.6218,-1.6197,-1.6176,-1.6175,-1.6188,-1.6259,-1.6281,-1.6323,-1.6231,-1.6232,-1.6233,0,-1.6591,-1.6566,-1.6559,-1.6514,-1.6506,-1.65,-1.647,-1.6455,-1.642,-1.6399,-1.6378,-1.6342,-1.6332,-1.63,-1.6287,-1.6273,-1.6263,-1.6245,-1.6245,-1.6241,-1.6207,-1.6257,-1.6335,-1.6342,-1.624,-1.6239,-1.6239,0,-1.6655,-1.6618,-1.661,-1.6595,-1.6541,-1.6539,-1.6517,-1.6481,-1.6467,-1.6441,-1.6432,-1.6406,-1.6391,-1.6373,-1.6331,-1.6312,-1.6323,-1.6287,-1.6306,-1.6308,-1.631,-1.6311,-1.6388,-1.6303,-1.6303,-1.6303,-1.6303,0,-1.6701,-1.67,-1.6639,-1.6634,-1.6632,-1.6584,-1.6583,-1.6556,-1.6526,-1.6516,-1.6471,-1.6463,-1.6408,-1.6395,-1.6362,-1.6358,-1.6351,-1.6335,-1.6326,-1.6339,-1.6341,-1.6331,-1.6327,-1.6305,-1.6304,-1.6304,-1.6304,0,-1.6771,-1.673,-1.6718,-1.667,-1.6658,-1.6658,-1.6617,-1.6612,-1.6581,-1.657,-1.6564,-1.6516,-1.6498,-1.6456,-1.6425,-1.6404,-1.6408,-1.6392,-1.642,-1.6415,-1.6437,-1.6436,-1.651,-1.6519,-1.6428,-1.6429,-1.643,0,-1.6803,-1.6801,-1.6753,-1.6744,-1.6724,-1.6709,-1.6695,-1.6649,-1.6637,-1.66,-1.66,-1.6579,-1.6559,-1.6533,-1.6496,-1.6474,-1.6458,-1.6486,-1.6454,-1.6468,-1.646,-1.6461,-1.6461,-1.6492,-1.6494,-1.6495,-1.6495,0,-1.6865,-1.6846,-1.6827,-1.6803,-1.6789,-1.6767,-1.6743,-1.6738,-1.6687,-1.6676,-1.6658,-1.6643,-1.6615,-1.6595,-1.6568,-1.6546,-1.6513,-1.6506,-1.651,-1.6522,-1.6539,-1.6532,-1.644,-1.6504,-1.6503,-1.6503,-1.6502,-1.6502,-1.6917,-1.6914,-1.6881,-1.6864,-1.6842,-1.6822,-1.6815,-1.6785,-1.6769,-1.6743,-1.6717,-1.6703,-1.6672,-1.6633,-1.6614,-1.6602,-1.6585,-1.659,-1.6591,-1.6593,-1.66,-1.6542,-1.6597,-1.6597,-1.6597,-1.6596,-1.6596,0,-1.6978,-1.6955,-1.694,-1.6909,-1.6896,-1.6868,-1.6841,-1.6832,-1.682,-1.6794,-1.6777,-1.6759,-1.6741,-1.6704,-1.6683,-1.6682,-1.6666,-1.6678,-1.6677,-1.6673,-1.6615,-1.6615,-1.6691,-1.6691,-1.6691,-1.6691,-1.6691,-1.6691,-1.7008,-1.7003,-1.6981,-1.6965,-1.6943,-1.6928,-1.6916,-1.6898,-1.6878,-1.686,-1.6845,-1.6822,-1.6792,-1.677,-1.6753,-1.6743,-1.6738,-1.6755,-1.674,-1.6686,-1.6677,-1.6668,-1.6668,-1.6754,-1.6754,-1.6799,-1.6799,-1.68]},{"header":{"parameterUnit":"m.s-1","parameterCategory":1,"la1":30.2991,"la2":30.254,"lo1":-89.0895,"lo2":-89.0444,"dy":0.0017,"dx":0.0017,"nx":28,"ny":28,"refTime":"2024-10-22T03:00:00:Z","depth":0,"parameterNumber":3,"parameterNumberName":"V-component_of_WINDS"},"data":[0,0,0,0,0,0,0,0,0,0,0,0,0,0,0,0,0,0,0,0,0,0,0,0,0,0,0,0,0,0,0,0,0,0,0,0,0,0,0,0,0,0,0,0,0,0,0,0,0,0,0,0,0,0,0,0,0,0,0.9851,0.9852,0,0.9872,0.9872,0.9872,0.9941,0.9942,0.9944,0.9945,0.9963,0.9962,0.9961,0,0,0,0,0,0,0,0,0,0,0,0,0,0.9868,0.9868,0.9851,0.9852,0.9852,0.9872,0.9872,0.9872,0.994,0.9942,0.9944,0.9946,0.9963,0.9962,0.9961,0,0,0,0,0,0,0,0,0,0,0,0,0,0.9872,0.9867,0.9851,0.9888,0.9892,0.9872,0.9872,0.9872,0.994,0.9942,0.9945,0.9947,0.9963,0.9962,0.996,0.9905,0,0,0.9956,0.9955,0,0,0,0,0,0,0,0,0.9872,0.9871,0.9883,0.9886,0.989,0.9906,0.9884,0.9883,0.9939,0.9922,0.9945,0.9948,0.9942,0.9942,0.9941,0.9906,0.9907,0.9956,0.9955,0.9954,0.9954,0,0,0,0,0,0,0,0.9871,0.9871,0.9859,0.9883,0.9887,0.9903,0.9906,0.9884,0.9918,0.9923,0.9928,0.993,0.9944,0.9942,0.9942,0.9907,0.9956,0.9955,0.9954,0.9953,0.9825,0.9823,0,0,0,0,0,0,0.9866,0.987,0.9859,0.986,0.9886,0.9901,0.9904,0.9898,0.9919,0.9924,0.9928,0.9933,0.9943,0.9943,0.9943,0.9877,0.9954,0.9953,0.9952,0.9827,0.9824,0.9822,0,0,0,0,0,0,0.9866,0.9864,0.9858,0.9866,0.9867,0.9898,0.9891,0.9898,0.9896,0.9922,0.9928,0.992,0.9945,0.9945,0.9914,0.9878,0.9952,0.9951,0.983,0.9826,0.9823,0.9746,0,0,0,0,0,0,0.9866,0.9864,0.9844,0.9865,0.9866,0.9829,0.9889,0.9896,0.9893,0.99,0.9916,0.9921,0.9947,0.9915,0.9912,0.9878,0.995,0.9834,0.9829,0.9824,0.9751,0.974,0.973,0,0,0,0,0,0.9867,0.9821,0.9843,0.9841,0.9842,0.9827,0.9827,0.9859,0.989,0.9869,0.9887,0.9921,0.9883,0.9912,0.9908,0.9873,0.9836,0.983,0.9825,0.9756,0.9742,0.973,0,0,0,0,0,0,0.9794,0.9825,0.9849,0.9809,0.9815,0.9839,0.9814,0.9843,0.9839,0.9846,0.9885,0.9887,0.985,0.9859,0.989,0.9819,0.9865,0.9859,0.9814,0.9801,0.979,0.9787,0.9949,0,0,0,0,0,0.9774,0.976,0.9788,0.975,0.9752,0.9782,0.9777,0.9801,0.9808,0.981,0.9825,0.983,0.9819,0.9811,0.9803,0.9754,0.9757,0.9728,0.9717,0.9708,0.9701,0.9673,0.966,0.9803,0.9803,0.9803,0,0,0.973,0.9746,0.9735,0.9735,0.9743,0.9726,0.9783,0.9764,0.9752,0.9807,0.9778,0.9789,0.9797,0.9756,0.9739,0.9762,0.9663,0.9701,0.9694,0.9691,0.9666,0.9653,0.964,0.9799,0.98,0.98,0,0,0.9643,0.9655,0.9623,0.963,0.964,0.9661,0.9653,0.9673,0.9682,0.9654,0.9695,0.9681,0.9662,0.9665,0.9664,0.9578,0.9608,0.9574,0.9516,0.9489,0.9477,0.9467,0.9434,0.9422,0.9568,0.9568,0.9568,0,0.9588,0.9566,0.9603,0.9581,0.9579,0.963,0.9597,0.9601,0.9608,0.9605,0.9632,0.9609,0.9618,0.9577,0.9556,0.9555,0.9545,0.9571,0.9476,0.9467,0.9458,0.9426,0.9414,0.9563,0.9564,0.9564,0.9565,0,0.9496,0.948,0.9453,0.9459,0.9455,0.9427,0.9459,0.945,0.9475,0.9492,0.9461,0.9474,0.9468,0.9461,0.9485,0.9423,0.9437,0.947,0.9516,0.9439,0.941,0.9398,0.9557,0.9559,0.956,0.9561,0,0,0.9361,0.9388,0.9378,0.938,0.9396,0.9384,0.9358,0.9354,0.9344,0.9347,0.9325,0.9308,0.9338,0.9337,0.9362,0.9338,0.9265,0.9373,0.9374,0.935,0.9195,0.9168,0.9153,0.9287,0.9285,0.9283,0.9193,0,0.9275,0.9234,0.9267,0.9218,0.9203,0.9251,0.9229,0.9235,0.9251,0.9239,0.9256,0.9242,0.9284,0.9283,0.9263,0.9278,0.9234,0.9286,0.9264,0.9262,0.9257,0.9138,0.911,0.9024,0.9182,0.918,0.9179,0,0.917,0.9169,0.9119,0.9137,0.9132,0.9111,0.9108,0.9097,0.9105,0.9118,0.9117,0.9147,0.9122,0.917,0.9134,0.9168,0.9161,0.9168,0.9165,0.9162,0.9213,0.9128,0.8998,0.8984,0.9162,0.9163,0.9164,0,0.9072,0.9059,0.9027,0.9028,0.9049,0.9033,0.9041,0.9051,0.9046,0.9044,0.904,0.9035,0.9031,0.9025,0.9053,0.9086,0.9012,0.9063,0.902,0.9019,0.8999,0.9,0.8863,0.9,0.9001,0.9001,0.9001,0,0.8972,0.8938,0.8983,0.8963,0.8927,0.8965,0.8928,0.894,0.8949,0.8931,0.8974,0.8955,0.8995,0.898,0.9002,0.8967,0.8966,0.8974,0.8979,0.8968,0.8967,0.8962,0.8967,0.8997,0.8998,0.8999,0.8999,0,0.8855,0.8885,0.8852,0.8875,0.888,0.8852,0.8871,0.8852,0.8871,0.8848,0.8844,0.8873,0.8858,0.8887,0.8875,0.889,0.884,0.8857,0.8837,0.8841,0.8795,0.8797,0.8647,0.8628,0.8781,0.8779,0.8778,0,0.8787,0.8763,0.8783,0.8775,0.878,0.8766,0.8761,0.8798,0.879,0.8797,0.8777,0.8766,0.8759,0.8732,0.8751,0.8742,0.8757,0.8705,0.8756,0.8744,0.8752,0.8752,0.8748,0.8693,0.8692,0.869,0.8689,0,0.8663,0.8678,0.867,0.8666,0.8659,0.8657,0.8659,0.8649,0.8688,0.8677,0.8663,0.8657,0.8646,0.8633,0.8629,0.8636,0.8667,0.8673,0.8662,0.8649,0.8637,0.864,0.8805,0.8676,0.8677,0.8678,0.8679,0.8679,0.8566,0.8546,0.8557,0.8546,0.8551,0.8551,0.8534,0.8552,0.8541,0.8535,0.8557,0.8537,0.8544,0.8542,0.8545,0.8529,0.8552,0.8536,0.8532,0.8527,0.8518,0.8643,0.8529,0.8529,0.8529,0.853,0.853,0,0.8441,0.8451,0.844,0.8441,0.8432,0.8465,0.8468,0.8458,0.844,0.8445,0.8437,0.8419,0.8407,0.8426,0.8416,0.8399,0.8414,0.8395,0.8395,0.8396,0.85,0.8509,0.8384,0.8384,0.8384,0.8384,0.8384,0.8384,0.8375,0.8341,0.8358,0.8327,0.8337,0.8319,0.8317,0.8317,0.8321,0.83,0.829,0.8303,0.8313,0.8304,0.8294,0.83,0.8293,0.8268,0.8279,0.8375,0.8389,0.8402,0.8411,0.8268,0.8267,0.8176,0.8175,0.8174]}]]